Home   Weather   Maraimalai Nagar   Past weeks

Flag for India Past Weather in Maraimalai Nagar, Tamil Nadu, India — Yesterday and Last 2 Weeks

Now
84 °F

More clouds than sun.


Feels Like: 92 °F
Forecast: 71 / 87 °F
Wind: 5 mph from North

Location: Madras / Minambakkam

Current Time: Dec 7, 2016 at 2:24:48 pm

Latest Report: Dec 7, 2016 at 2:00 pm


Visibility: 3 mi

Pressure: 29.83 "Hg

Humidity: 74%

Dew Point: 75 °F

Location of Maraimalai NagarLocation

Past Weather in Maraimalai Nagar — Graph

°F

Maraimalai Nagar Temperature Yesterday

Maximum temperature yesterday: 88 °F (at 11:30 am)
Minimum temperature yesterday: 73 °F (at 3:00 am)
Average temperature yesterday: 79 °F

High & Low Weather Summary for the Past Weeks

 TemperatureHumidityPressure
High90 °F (Nov 23, 12:00 pm)100% (Nov 29, 2:00 am)29.95 "Hg (Nov 29, 2:00 am)
Low66 °F (Nov 28, 5:30 am)27% (Nov 23, 12:00 pm)29.74 "Hg (Nov 25, 2:30 pm)
Average78 °F76%29.84 "Hg
* Reported Nov 22 12:30 pm — Dec 7 1:00 pm, Maraimalai Nagar, Weather by CustomWeather, © 2016

Note: Actual official high and low records may vary slightly from our data, if they occured in-between our weather recording intervals... More about our weather records

Advertising

Maraimalai Nagar Weather History for the Previous 24 Hours

Scroll right to see more
 ConditionsComfort  
Time TempWeatherWind HumidityBarometerVisibility
1:00 pm
Wed, Dec 7
82 °FMore clouds than sun.8 mph74%29.83 "Hg2 mi
12:30 pm81 °FDrizzle. More clouds than sun.6 mph79%29.83 "Hg2 mi
12:00 pm82 °FMore clouds than sun.5 mph70%29.86 "Hg2 mi
11:30 am81 °FMore clouds than sun.2 mph74%29.86 "Hg2 mi
11:00 am79 °FMore clouds than sun.2 mph79%29.89 "Hg2 mi
10:30 am79 °FMore clouds than sun.2 mph79%29.89 "Hg2 mi
10:00 am79 °FFog.2 mph74%29.89 "Hg2 mi
9:30 am77 °FFog.2 mph79%29.89 "Hg2 mi
9:00 am77 °FFog.2 mph79%29.89 "Hg2 mi
8:30 am77 °FFog.2 mph79%29.89 "Hg2 mi
8:00 am75 °FFog.2 mph83%29.89 "Hg1 mi
7:30 am73 °FFog.3 mph89%29.89 "Hg1 mi
6:30 am73 °FFog.3 mph83%29.86 "Hg1 mi
5:30 am72 °FFog.5 mph88%29.83 "Hg2 mi
5:00 am72 °FFog.No wind88%29.83 "Hg2 mi
4:30 am72 °FFog.No wind88%29.83 "Hg2 mi
4:00 am72 °FFog.No wind88%29.80 "Hg2 mi
3:30 am72 °FFog.No wind88%29.80 "Hg2 mi
3:00 am72 °FFog.No wind88%29.80 "Hg3 mi
2:30 am72 °FFog.No wind88%29.83 "Hg3 mi
2:00 am72 °FFog.No wind88%29.83 "Hg3 mi
1:30 am73 °FFog.No wind83%29.83 "Hg3 mi
1:00 am73 °FFog.No wind83%29.86 "Hg3 mi
12:30 am73 °FPassing clouds.No wind83%29.86 "Hg4 mi
11:30 pm
Tue, Dec 6
73 °FPassing clouds.No wind83%29.86 "Hg4 mi
11:00 pm73 °FPassing clouds.2 mph83%29.89 "Hg4 mi
10:30 pm75 °FPassing clouds.2 mph78%29.89 "Hg4 mi
10:00 pm75 °FPassing clouds.No wind74%29.89 "Hg4 mi
9:30 pm75 °FPassing clouds.No wind74%29.89 "Hg4 mi
9:00 pm77 °FPassing clouds.No wind69%29.89 "Hg4 mi
8:30 pm77 °FPassing clouds.2 mph69%29.89 "Hg4 mi
8:00 pm77 °FPassing clouds.3 mph69%29.89 "Hg4 mi
7:30 pm79 °FPassing clouds.3 mph65%29.86 "Hg4 mi
7:00 pm79 °FPassing clouds.6 mph70%29.86 "Hg4 mi
6:30 pm79 °FPassing clouds.7 mph70%29.83 "Hg4 mi
6:00 pm81 °FScattered clouds.6 mph62%29.83 "Hg4 mi
5:30 pm81 °FScattered clouds.9 mph62%29.83 "Hg4 mi
5:00 pm82 °FBroken clouds.12 mph55%29.83 "Hg4 mi
4:30 pm82 °FBroken clouds.7 mph51%29.80 "Hg4 mi
4:00 pm82 °FBroken clouds.10 mph51%29.80 "Hg4 mi
3:30 pm84 °FScattered clouds.12 mph48%29.80 "Hg4 mi
3:00 pm84 °FScattered clouds.9 mph48%29.80 "Hg4 mi
2:30 pm86 °FScattered clouds.12 mph43%29.80 "Hg5 mi
2:00 pm86 °FScattered clouds.8 mph46%29.80 "Hg5 mi
Weather by CustomWeather, © 2016

See weather overviewHow to use our weather pages